RUK31RP EGAA-EGSS

Flight info

Callsign RUK31RP
Flight time 0h 59m
Altitude 33000
Route LISBO DCT RINGA DCT BABGU DCT ETIGA DCT INKOB Q39 NOMSU UQ4 LISTO
Aircraft B738/M-SDE2E3FGHIRWXY/LB1

Departure

Time 2026-05-06 15:12
Airport Belfast International Airport (EGAA)

Arrival

Time 2026-05-06 16:12
Airport London Stansted Airport (EGSS)
Time Latitude Longitude Altitude Speed Heading
2026-05-06 14:36 54.66015 -6.22027 271 ft 0 kts 14°
2026-05-06 14:57 54.66017 -6.22027 271 ft 1 kts 14°
2026-05-06 15:00 54.66007 -6.22031 271 ft 4 kts 19°
2026-05-06 15:01 54.65983 -6.22052 279 ft 4 kts 44°
2026-05-06 15:01 54.65968 -6.22088 276 ft 4 kts 66°
2026-05-06 15:01 54.65959 -6.22123 273 ft 4 kts 65°
2026-05-06 15:01 54.65948 -6.22165 276 ft 4 kts 66°
2026-05-06 15:02 54.65938 -6.22207 273 ft 4 kts 66°
2026-05-06 15:02 54.65926 -6.22250 275 ft 4 kts 66°
2026-05-06 15:02 54.65915 -6.22293 273 ft 4 kts 66°
2026-05-06 15:02 54.65912 -6.22307 273 ft 0 kts 66°
2026-05-06 15:03 54.65910 -6.22315 278 ft 2 kts 66°
2026-05-06 15:03 54.65909 -6.22316 277 ft 0 kts 66°
2026-05-06 15:06 54.65911 -6.22308 273 ft 3 kts 66°
2026-05-06 15:06 54.65929 -6.22238 273 ft 6 kts 66°
2026-05-06 15:06 54.65953 -6.22147 277 ft 11 kts 70°
2026-05-06 15:07 54.65914 -6.22056 271 ft 11 kts 155°
2026-05-06 15:07 54.65851 -6.21999 271 ft 10 kts 137°
2026-05-06 15:07 54.65849 -6.21890 271 ft 10 kts 65°
2026-05-06 15:07 54.65877 -6.21785 272 ft 10 kts 65°
2026-05-06 15:08 54.65910 -6.21661 271 ft 13 kts 65°
2026-05-06 15:08 54.65952 -6.21508 271 ft 14 kts 65°
2026-05-06 15:08 54.65993 -6.21354 271 ft 14 kts 65°
2026-05-06 15:08 54.66033 -6.21208 272 ft 13 kts 65°
2026-05-06 15:09 54.66071 -6.21066 271 ft 13 kts 65°
2026-05-06 15:09 54.66099 -6.20960 275 ft 16 kts 65°
2026-05-06 15:09 54.66153 -6.20760 271 ft 19 kts 65°
2026-05-06 15:09 54.66208 -6.20557 271 ft 18 kts 65°
2026-05-06 15:10 54.66261 -6.20362 274 ft 18 kts 65°
2026-05-06 15:10 54.66312 -6.20173 271 ft 17 kts 65°
2026-05-06 15:10 54.66361 -6.19991 273 ft 16 kts 65°
2026-05-06 15:10 54.66396 -6.19810 271 ft 16 kts 95°
2026-05-06 15:11 54.66326 -6.19681 275 ft 15 kts 155°
2026-05-06 15:11 54.66264 -6.19676 271 ft 9 kts 237°
2026-05-06 15:11 54.66236 -6.19776 274 ft 13 kts 245°
2026-05-06 15:11 54.66109 -6.20243 271 ft 79 kts 245°
2026-05-06 15:12 54.65785 -6.21449 271 ft 140 kts 245°
2026-05-06 15:12 54.65326 -6.23204 538 ft 167 kts 242°
2026-05-06 15:12 54.64873 -6.25006 1415 ft 162 kts 241°
2026-05-06 15:12 54.64400 -6.26830 2052 ft 175 kts 231°
2026-05-06 15:13 54.63430 -6.28127 2598 ft 182 kts 193°
2026-05-06 15:13 54.62194 -6.27951 3245 ft 189 kts 153°
2026-05-06 15:13 54.61256 -6.26228 3687 ft 210 kts 122°
2026-05-06 15:13 54.60576 -6.23892 4311 ft 224 kts 120°
2026-05-06 15:14 54.59880 -6.21527 5128 ft 227 kts 121°
2026-05-06 15:14 54.59137 -6.19043 5849 ft 233 kts 120°
2026-05-06 15:14 54.58387 -6.16559 6647 ft 235 kts 120°
2026-05-06 15:14 54.57617 -6.14027 7284 ft 244 kts 119°
2026-05-06 15:15 54.56794 -6.11340 7555 ft 269 kts 119°
2026-05-06 15:15 54.55895 -6.08412 8111 ft 282 kts 120°
2026-05-06 15:15 54.54964 -6.05393 8787 ft 289 kts 120°
2026-05-06 15:15 54.53995 -6.02259 8999 ft 293 kts 120°
2026-05-06 15:16 54.53053 -5.99218 9022 ft 291 kts 120°
2026-05-06 15:16 54.52088 -5.96112 9283 ft 297 kts 120°
2026-05-06 15:16 54.51113 -5.92980 10139 ft 299 kts 120°
2026-05-06 15:16 54.50105 -5.89752 10559 ft 317 kts 120°
2026-05-06 15:17 54.49022 -5.86290 10825 ft 338 kts 120°
2026-05-06 15:17 54.47889 -5.82670 11374 ft 349 kts 120°
2026-05-06 15:17 54.46739 -5.78998 12251 ft 348 kts 120°
2026-05-06 15:17 54.45584 -5.75315 13017 ft 354 kts 120°
2026-05-06 15:18 54.44409 -5.71573 13813 ft 358 kts 120°
2026-05-06 15:18 54.43216 -5.67781 14519 ft 363 kts 120°
2026-05-06 15:18 54.42006 -5.63942 15274 ft 367 kts 120°
2026-05-06 15:18 54.40800 -5.60115 16358 ft 360 kts 120°
2026-05-06 15:19 54.39552 -5.56362 17071 ft 367 kts 126°
2026-05-06 15:19 54.37996 -5.52801 17531 ft 378 kts 130°
2026-05-06 15:19 54.36429 -5.49118 18171 ft 386 kts 126°
2026-05-06 15:19 54.34935 -5.45279 18864 ft 389 kts 125°
2026-05-06 15:20 54.33433 -5.41408 19532 ft 392 kts 125°
2026-05-06 15:20 54.31897 -5.37529 20162 ft 396 kts 126°
2026-05-06 15:20 54.30320 -5.33626 20788 ft 400 kts 126°
2026-05-06 15:20 54.28721 -5.29708 21407 ft 404 kts 126°
2026-05-06 15:21 54.27070 -5.25794 22023 ft 407 kts 128°
2026-05-06 15:21 54.25295 -5.21982 22611 ft 411 kts 130°
2026-05-06 15:21 54.23458 -5.18202 23195 ft 415 kts 130°
2026-05-06 15:21 54.21594 -5.14408 23741 ft 419 kts 130°
2026-05-06 15:22 54.19711 -5.10564 24227 ft 423 kts 130°
2026-05-06 15:22 54.17824 -5.06689 24729 ft 425 kts 130°
2026-05-06 15:22 54.15933 -5.02791 25218 ft 428 kts 129°
2026-05-06 15:22 54.14030 -4.98860 25684 ft 431 kts 129°
2026-05-06 15:23 54.12113 -4.94901 26155 ft 434 kts 129°
2026-05-06 15:23 54.10186 -4.90927 26622 ft 437 kts 129°
2026-05-06 15:23 54.08244 -4.86926 27078 ft 440 kts 129°
2026-05-06 15:23 54.06293 -4.82915 27515 ft 442 kts 129°
2026-05-06 15:24 54.04321 -4.78871 28047 ft 443 kts 129°
2026-05-06 15:24 54.02406 -4.74775 28679 ft 441 kts 127°
2026-05-06 15:24 54.00569 -4.70634 29340 ft 438 kts 126°
2026-05-06 15:24 53.98750 -4.66474 29928 ft 438 kts 126°
2026-05-06 15:25 53.96933 -4.62332 30407 ft 438 kts 126°
2026-05-06 15:25 53.95105 -4.58202 30866 ft 437 kts 126°
2026-05-06 15:25 53.93273 -4.54098 31340 ft 436 kts 126°
2026-05-06 15:25 53.91437 -4.50002 31794 ft 435 kts 126°
2026-05-06 15:26 53.89603 -4.45924 32241 ft 434 kts 127°
2026-05-06 15:26 53.87773 -4.41861 32752 ft 432 kts 127°
2026-05-06 15:26 53.85968 -4.37793 33046 ft 435 kts 125°
2026-05-06 15:27 53.82500 -4.29303 33018 ft 436 kts 123°
2026-05-06 15:27 53.79119 -4.20896 33019 ft 430 kts 123°
2026-05-06 15:28 53.75713 -4.12561 33031 ft 432 kts 124°
2026-05-06 15:28 53.72266 -4.04204 33033 ft 434 kts 124°
2026-05-06 15:29 53.68802 -3.95832 33027 ft 435 kts 125°
2026-05-06 15:29 53.65328 -3.87477 33015 ft 434 kts 125°
2026-05-06 15:30 53.61861 -3.79171 33013 ft 432 kts 125°
2026-05-06 15:30 53.58431 -3.70972 33019 ft 430 kts 125°
2026-05-06 15:31 53.54988 -3.62768 33025 ft 428 kts 125°
2026-05-06 15:31 53.51965 -3.55583 33024 ft 427 kts 126°
2026-05-06 15:33 53.48778 -3.48032 33016 ft 421 kts 126°
2026-05-06 15:34 53.45740 -3.39599 33020 ft 424 kts 113°
2026-05-06 15:34 53.43483 -3.30442 33040 ft 433 kts 112°
2026-05-06 15:35 53.41142 -3.21047 33020 ft 436 kts 113°
2026-05-06 15:35 53.38729 -3.11599 33193 ft 447 kts 112°
2026-05-06 15:36 53.37598 -3.06737 33552 ft 447 kts 111°
2026-05-06 15:36 53.36527 -3.01850 33992 ft 446 kts 110°
2026-05-06 15:36 53.35469 -2.96973 34371 ft 445 kts 110°
2026-05-06 15:36 53.34404 -2.92124 34707 ft 444 kts 111°
2026-05-06 15:37 53.33322 -2.87271 34986 ft 445 kts 111°
2026-05-06 15:37 53.32224 -2.82394 35009 ft 450 kts 111°
2026-05-06 15:37 53.29981 -2.72600 35017 ft 449 kts 113°
2026-05-06 15:38 53.27326 -2.63263 35024 ft 443 kts 118°
2026-05-06 15:38 53.24521 -2.54083 35036 ft 444 kts 118°
2026-05-06 15:39 53.21753 -2.44851 35021 ft 445 kts 117°
2026-05-06 15:39 53.19010 -2.35601 34847 ft 442 kts 117°
2026-05-06 15:40 53.17655 -2.31035 34541 ft 436 kts 118°
2026-05-06 15:40 53.16313 -2.26530 34179 ft 433 kts 118°
2026-05-06 15:40 53.14954 -2.22077 33792 ft 429 kts 122°
2026-05-06 15:40 53.13104 -2.18269 33373 ft 419 kts 142°
2026-05-06 15:41 53.10818 -2.15344 33043 ft 413 kts 147°
2026-05-06 15:41 53.08491 -2.12561 32648 ft 410 kts 147°
2026-05-06 15:41 53.06173 -2.09821 32277 ft 407 kts 147°
2026-05-06 15:41 53.03877 -2.07096 31914 ft 404 kts 147°
2026-05-06 15:42 53.01606 -2.04380 31557 ft 401 kts 147°
2026-05-06 15:42 52.99356 -2.01673 31201 ft 398 kts 147°
2026-05-06 15:42 52.97124 -1.98977 30848 ft 395 kts 147°
2026-05-06 15:42 52.94912 -1.96302 30508 ft 392 kts 147°
2026-05-06 15:43 52.92715 -1.93647 30170 ft 390 kts 147°
2026-05-06 15:43 52.90525 -1.91003 29776 ft 387 kts 147°
2026-05-06 15:43 52.88359 -1.88390 29416 ft 383 kts 147°
2026-05-06 15:43 52.86214 -1.85808 29038 ft 380 kts 147°
2026-05-06 15:44 52.84094 -1.83258 28688 ft 376 kts 147°
2026-05-06 15:44 52.81977 -1.80715 28330 ft 373 kts 147°
2026-05-06 15:44 52.79888 -1.78208 27969 ft 370 kts 147°
2026-05-06 15:44 52.77814 -1.75723 27645 ft 367 kts 147°
2026-05-06 15:45 52.75752 -1.73256 27268 ft 364 kts 147°
2026-05-06 15:45 52.73676 -1.70897 26934 ft 359 kts 152°
2026-05-06 15:45 52.71510 -1.68909 26616 ft 354 kts 156°
2026-05-06 15:45 52.69316 -1.67076 26268 ft 352 kts 156°
2026-05-06 15:46 52.67131 -1.65285 25930 ft 350 kts 156°
2026-05-06 15:46 52.64958 -1.63491 25596 ft 348 kts 156°
2026-05-06 15:46 52.62801 -1.61688 25261 ft 347 kts 156°
2026-05-06 15:46 52.60659 -1.59880 24929 ft 345 kts 155°
2026-05-06 15:47 52.58530 -1.58071 24595 ft 344 kts 155°
2026-05-06 15:47 52.56411 -1.56265 24270 ft 343 kts 155°
2026-05-06 15:47 52.54297 -1.54461 23943 ft 342 kts 155°
2026-05-06 15:47 52.52188 -1.52662 23608 ft 341 kts 155°
2026-05-06 15:48 52.50083 -1.50867 23235 ft 341 kts 155°
2026-05-06 15:48 52.48013 -1.49102 22865 ft 339 kts 155°
2026-05-06 15:48 52.45926 -1.47324 22531 ft 337 kts 155°
2026-05-06 15:48 52.43849 -1.45558 22195 ft 335 kts 155°
2026-05-06 15:49 52.41785 -1.43804 21867 ft 333 kts 155°
2026-05-06 15:49 52.39737 -1.42066 21541 ft 331 kts 155°
2026-05-06 15:49 52.37697 -1.40336 21218 ft 329 kts 155°
2026-05-06 15:49 52.35672 -1.38620 20893 ft 327 kts 155°
2026-05-06 15:50 52.33650 -1.36908 20581 ft 326 kts 155°
2026-05-06 15:50 52.31639 -1.35209 20261 ft 324 kts 155°
2026-05-06 15:50 52.29641 -1.33523 19948 ft 323 kts 155°
2026-05-06 15:50 52.28330 -1.32368 19738 ft 323 kts 153°
2026-05-06 15:51 52.26380 -1.30541 19408 ft 322 kts 152°
2026-05-06 15:51 52.24449 -1.28695 19103 ft 321 kts 151°
2026-05-06 15:51 52.22522 -1.26851 18783 ft 321 kts 151°
2026-05-06 15:51 52.20595 -1.25018 18466 ft 320 kts 152°
2026-05-06 15:52 52.18671 -1.23195 18131 ft 320 kts 152°
2026-05-06 15:52 52.16743 -1.21376 17775 ft 319 kts 152°
2026-05-06 15:52 52.14827 -1.19573 17433 ft 318 kts 152°
2026-05-06 15:52 52.12919 -1.17781 17111 ft 316 kts 152°
2026-05-06 15:53 52.11015 -1.15995 16790 ft 315 kts 152°
2026-05-06 15:53 52.09125 -1.14224 16480 ft 313 kts 152°
2026-05-06 15:53 52.07243 -1.12463 16169 ft 311 kts 152°
2026-05-06 15:53 52.05367 -1.10710 15859 ft 310 kts 152°
2026-05-06 15:54 52.03504 -1.08970 15552 ft 308 kts 152°
2026-05-06 15:54 52.01662 -1.07203 15233 ft 308 kts 145°
2026-05-06 15:54 52.00245 -1.04645 14943 ft 307 kts 116°
2026-05-06 15:54 51.99626 -1.01394 14798 ft 302 kts 94°
2026-05-06 15:55 51.99554 -0.97967 14649 ft 307 kts 89°
2026-05-06 15:55 51.99568 -0.94467 14469 ft 313 kts 88°
2026-05-06 15:55 51.99595 -0.90988 14276 ft 316 kts 88°
2026-05-06 15:55 51.99619 -0.87439 14092 ft 315 kts 88°
2026-05-06 15:56 51.99634 -0.83886 13902 ft 314 kts 88°
2026-05-06 15:56 51.99642 -0.80352 13708 ft 314 kts 88°
2026-05-06 15:56 51.99645 -0.76806 13506 ft 313 kts 88°
2026-05-06 15:56 51.99645 -0.73278 13319 ft 311 kts 88°
2026-05-06 15:57 51.99642 -0.69773 13126 ft 310 kts 88°
2026-05-06 15:57 51.99637 -0.66284 12955 ft 309 kts 88°
2026-05-06 15:57 51.99631 -0.62813 12780 ft 307 kts 88°
2026-05-06 15:57 51.99624 -0.59344 12615 ft 307 kts 88°
2026-05-06 15:58 51.99615 -0.55878 12419 ft 307 kts 88°
2026-05-06 15:58 51.99606 -0.52430 12246 ft 305 kts 89°
2026-05-06 15:58 51.99597 -0.49027 12075 ft 304 kts 88°
2026-05-06 15:58 51.99586 -0.45602 11907 ft 303 kts 88°
2026-05-06 15:59 51.99573 -0.42178 11723 ft 303 kts 88°
2026-05-06 15:59 51.99558 -0.38770 11554 ft 301 kts 89°
2026-05-06 15:59 51.99525 -0.35375 11381 ft 301 kts 89°
2026-05-06 15:59 51.99484 -0.31981 11203 ft 301 kts 89°
2026-05-06 16:00 51.99441 -0.28589 11033 ft 300 kts 89°
2026-05-06 16:00 51.99398 -0.25156 10849 ft 300 kts 89°
2026-05-06 16:00 51.99355 -0.21776 10625 ft 298 kts 88°
2026-05-06 16:00 51.99313 -0.18423 10387 ft 298 kts 89°
2026-05-06 16:01 51.99270 -0.15068 10148 ft 296 kts 89°
2026-05-06 16:01 51.99227 -0.11721 9899 ft 295 kts 89°
2026-05-06 16:01 51.99088 -0.08406 9607 ft 297 kts 101°
2026-05-06 16:01 51.98216 -0.05368 9280 ft 300 kts 128°
2026-05-06 16:02 51.96654 -0.03315 9200 ft 287 kts 155°
2026-05-06 16:02 51.94780 -0.02611 9061 ft 270 kts 183°
2026-05-06 16:02 51.92969 -0.03075 8813 ft 260 kts 194°
2026-05-06 16:02 51.91214 -0.03759 8436 ft 257 kts 195°
2026-05-06 16:03 51.89496 -0.04471 8054 ft 255 kts 195°
2026-05-06 16:03 51.87775 -0.05194 7711 ft 252 kts 195°
2026-05-06 16:03 51.86086 -0.05920 7377 ft 249 kts 195°
2026-05-06 16:03 51.84421 -0.06653 7002 ft 248 kts 195°
2026-05-06 16:04 51.82768 -0.07393 6720 ft 245 kts 195°
2026-05-06 16:04 51.81160 -0.08126 6612 ft 232 kts 195°
2026-05-06 16:04 51.79644 -0.08811 6506 ft 221 kts 196°
2026-05-06 16:04 51.78217 -0.09438 6424 ft 209 kts 196°
2026-05-06 16:05 51.76841 -0.10039 6255 ft 201 kts 196°
2026-05-06 16:05 51.75487 -0.10623 5932 ft 201 kts 196°
2026-05-06 16:05 51.74137 -0.11200 5649 ft 200 kts 195°
2026-05-06 16:05 51.72780 -0.11535 5292 ft 200 kts 171°
2026-05-06 16:06 51.71556 -0.10592 5020 ft 195 kts 131°
2026-05-06 16:06 51.70993 -0.08692 4809 ft 191 kts 90°
2026-05-06 16:06 51.71177 -0.06590 4657 ft 192 kts 73°
2026-05-06 16:06 51.71541 -0.04498 4449 ft 194 kts 71°
2026-05-06 16:07 51.71923 -0.02410 4244 ft 193 kts 70°
2026-05-06 16:07 51.72456 -0.00472 4028 ft 188 kts 43°
2026-05-06 16:07 51.73522 0.00631 3854 ft 180 kts 28°
2026-05-06 16:07 51.74420 0.01984 3696 ft 179 kts 51°
2026-05-06 16:08 51.75254 0.03499 3571 ft 180 kts 42°
2026-05-06 16:08 51.76153 0.04880 3509 ft 178 kts 40°
2026-05-06 16:08 51.77073 0.06266 3281 ft 183 kts 41°
2026-05-06 16:08 51.78007 0.07673 3023 ft 182 kts 40°
2026-05-06 16:09 51.78920 0.09051 2785 ft 178 kts 40°
2026-05-06 16:09 51.79805 0.10386 2548 ft 175 kts 40°
2026-05-06 16:09 51.80695 0.11728 2292 ft 171 kts 39°
2026-05-06 16:09 51.81554 0.13022 2066 ft 167 kts 40°
2026-05-06 16:10 51.82392 0.14291 1847 ft 164 kts 39°
2026-05-06 16:10 51.83204 0.15515 1620 ft 153 kts 39°
2026-05-06 16:10 51.83955 0.16646 1404 ft 143 kts 39°
2026-05-06 16:10 51.84645 0.17684 1261 ft 135 kts 42°
2026-05-06 16:11 51.85343 0.18762 1047 ft 140 kts 41°
2026-05-06 16:11 51.86048 0.19820 832 ft 137 kts 40°
2026-05-06 16:11 51.86757 0.20861 604 ft 139 kts 42°
2026-05-06 16:11 51.87476 0.21946 400 ft 138 kts 43°
2026-05-06 16:12 51.88140 0.22954 332 ft 114 kts 41°
2026-05-06 16:12 51.88591 0.23624 338 ft 49 kts 42°
2026-05-06 16:12 51.88680 0.23758 338 ft 0 kts 45°
2026-05-06 16:12 51.88697 0.23785 339 ft 12 kts 43°
2026-05-06 16:13 51.88787 0.23935 348 ft 24 kts 54°
2026-05-06 16:13 51.88869 0.24179 352 ft 27 kts 70°
2026-05-06 16:13 51.88916 0.24446 347 ft 16 kts 89°